SIA787 VABB-VOMM

Flight info

Callsign SIA787
Flight time 1h 25m
Altitude 37000
Route OMKIS2B EPKOS Q9 OPAMO OPAMO2E
Aircraft B78X/H-SDE1E2E3FGHIJ2J3J4J5M1RWXY/LB1D1

Departure

Time 2026-04-24 12:50
Airport Chhatrapati Shivaji Maharaj International Airport (VABB)

Arrival

Time 2026-04-24 14:16
Airport Chennai International Airport (VOMM)
Time Latitude Longitude Altitude Speed Heading
2026-04-24 12:28 19.09146 72.85212 39 ft 0 kts 356°
2026-04-24 12:40 19.09140 72.85212 38 ft 1 kts 356°
2026-04-24 12:40 19.09131 72.85213 37 ft 1 kts 356°
2026-04-24 12:40 19.09122 72.85214 38 ft 1 kts 356°
2026-04-24 12:40 19.09113 72.85214 37 ft 1 kts 352°
2026-04-24 12:41 19.09104 72.85215 35 ft 1 kts 335°
2026-04-24 12:41 19.09099 72.85217 36 ft 1 kts 326°
2026-04-24 12:41 19.09093 72.85219 35 ft 1 kts 306°
2026-04-24 12:41 19.09090 72.85221 35 ft 1 kts 285°
2026-04-24 12:42 19.09088 72.85224 34 ft 0 kts 273°
2026-04-24 12:42 19.09088 72.85227 34 ft 0 kts 272°
2026-04-24 12:42 19.09088 72.85228 34 ft 0 kts 272°
2026-04-24 12:44 19.09088 72.85226 34 ft 1 kts 272°
2026-04-24 12:44 19.09088 72.85212 34 ft 3 kts 272°
2026-04-24 12:44 19.09089 72.85188 35 ft 4 kts 269°
2026-04-24 12:45 19.09088 72.85158 39 ft 4 kts 269°
2026-04-24 12:45 19.09083 72.85144 38 ft 2 kts 248°
2026-04-24 12:45 19.09079 72.85140 39 ft 0 kts 232°
2026-04-24 12:45 19.09077 72.85138 39 ft 1 kts 230°
2026-04-24 12:46 19.09071 72.85133 39 ft 1 kts 216°
2026-04-24 12:46 19.09065 72.85130 39 ft 2 kts 210°
2026-04-24 12:46 19.09049 72.85126 39 ft 3 kts 193°
2026-04-24 12:46 19.09038 72.85128 39 ft 1 kts 166°
2026-04-24 12:47 19.09020 72.85129 39 ft 3 kts 181°
2026-04-24 12:47 19.08988 72.85126 39 ft 5 kts 185°
2026-04-24 12:47 19.08980 72.85126 39 ft 0 kts 185°
2026-04-24 12:48 19.08973 72.85125 39 ft 2 kts 185°
2026-04-24 12:48 19.08955 72.85124 39 ft 3 kts 183°
2026-04-24 12:48 19.08926 72.85123 38 ft 5 kts 179°
2026-04-24 12:48 19.08888 72.85126 38 ft 6 kts 176°
2026-04-24 12:49 19.08861 72.85135 38 ft 2 kts 146°
2026-04-24 12:49 19.08859 72.85141 38 ft 2 kts 126°
2026-04-24 12:49 19.08850 72.85171 38 ft 7 kts 105°
2026-04-24 12:49 19.08848 72.85240 39 ft 15 kts 88°
2026-04-24 12:50 19.08856 72.85594 37 ft 92 kts 89°
2026-04-24 12:50 19.08874 72.86574 36 ft 172 kts 88°
2026-04-24 12:50 19.08892 72.88023 330 ft 218 kts 87°
2026-04-24 12:50 19.08893 72.89749 1047 ft 254 kts 88°
2026-04-24 12:51 19.08760 72.91743 1903 ft 287 kts 100°
2026-04-24 12:51 19.07941 72.93736 2990 ft 311 kts 117°
2026-04-24 12:51 19.06941 72.95869 2941 ft 321 kts 116°
2026-04-24 12:51 19.05455 72.97505 2897 ft 304 kts 152°
2026-04-24 12:52 19.03475 72.97954 2867 ft 286 kts 186°
2026-04-24 12:52 19.01543 72.97531 2759 ft 283 kts 196°
2026-04-24 12:52 18.99636 72.97045 2622 ft 281 kts 192°
2026-04-24 12:52 18.97730 72.96784 2484 ft 280 kts 184°
2026-04-24 12:53 18.95811 72.96930 2326 ft 275 kts 169°
2026-04-24 12:53 18.93944 72.97427 2193 ft 281 kts 165°
2026-04-24 12:53 18.92076 72.98011 2075 ft 282 kts 164°
2026-04-24 12:53 18.90214 72.98531 2028 ft 275 kts 167°
2026-04-24 12:54 18.88325 72.98896 2028 ft 274 kts 179°
2026-04-24 12:54 18.86393 72.98880 2025 ft 275 kts 181°
2026-04-24 12:54 18.84473 72.98879 2028 ft 278 kts 180°
2026-04-24 12:54 18.82551 72.98887 2028 ft 280 kts 180°
2026-04-24 12:55 18.80635 72.98895 2032 ft 277 kts 180°
2026-04-24 12:55 18.78727 72.98896 2032 ft 274 kts 180°
2026-04-24 12:55 18.76801 72.98898 2033 ft 280 kts 180°
2026-04-24 12:55 18.74887 72.98903 2027 ft 272 kts 180°
2026-04-24 12:56 18.73053 72.98910 2709 ft 260 kts 180°
2026-04-24 12:56 18.71193 72.98913 3625 ft 273 kts 180°
2026-04-24 12:56 18.69282 72.98913 4561 ft 279 kts 180°
2026-04-24 12:56 18.67343 72.98916 5474 ft 279 kts 180°
2026-04-24 12:57 18.65387 72.98895 6391 ft 281 kts 181°
2026-04-24 12:57 18.63410 72.98860 7296 ft 284 kts 181°
2026-04-24 12:57 18.61431 72.98833 8131 ft 291 kts 181°
2026-04-24 12:57 18.59394 72.98812 9338 ft 294 kts 181°
2026-04-24 12:58 18.57330 72.98785 10344 ft 303 kts 181°
2026-04-24 12:58 18.55150 72.98754 11048 ft 323 kts 181°
2026-04-24 12:58 18.52833 72.98725 11678 ft 344 kts 181°
2026-04-24 12:58 18.50366 72.98691 12257 ft 365 kts 181°
2026-04-24 12:59 18.47758 72.98655 12818 ft 383 kts 181°
2026-04-24 12:59 18.45072 72.98621 13697 ft 391 kts 181°
2026-04-24 12:59 18.42360 72.98587 14557 ft 397 kts 181°
2026-04-24 12:59 18.39582 72.98554 15445 ft 402 kts 181°
2026-04-24 13:00 18.36765 72.98520 16344 ft 407 kts 181°
2026-04-24 13:00 18.33913 72.98484 17180 ft 412 kts 181°
2026-04-24 13:00 18.31024 72.98449 18034 ft 417 kts 181°
2026-04-24 13:00 18.28109 72.98414 18749 ft 422 kts 181°
2026-04-24 13:01 18.25153 72.98377 19437 ft 427 kts 181°
2026-04-24 13:01 18.22170 72.98340 20150 ft 431 kts 181°
2026-04-24 13:01 18.19149 72.98303 20834 ft 436 kts 181°
2026-04-24 13:01 18.16104 72.98266 21511 ft 440 kts 181°
2026-04-24 13:02 18.13061 72.98273 22135 ft 445 kts 176°
2026-04-24 13:02 18.10011 72.98836 22783 ft 449 kts 164°
2026-04-24 13:02 18.07105 73.00063 23407 ft 452 kts 152°
2026-04-24 13:02 18.04495 73.01897 23924 ft 456 kts 142°
2026-04-24 13:03 18.02128 73.04114 24443 ft 461 kts 138°
2026-04-24 13:03 17.99826 73.06475 24936 ft 465 kts 137°
2026-04-24 13:03 17.97524 73.08871 25435 ft 468 kts 139°
2026-04-24 13:03 17.95112 73.11192 25919 ft 471 kts 141°
2026-04-24 13:04 17.92666 73.13423 26390 ft 475 kts 141°
2026-04-24 13:04 17.90193 73.15755 26833 ft 479 kts 140°
2026-04-24 13:04 17.87741 73.18147 27297 ft 483 kts 140°
2026-04-24 13:04 17.85255 73.20540 27747 ft 487 kts 141°
2026-04-24 13:05 17.82729 73.22919 28176 ft 490 kts 142°
2026-04-24 13:05 17.80184 73.25327 28607 ft 494 kts 142°
2026-04-24 13:05 17.77635 73.27766 29004 ft 498 kts 142°
2026-04-24 13:05 17.75070 73.30218 29405 ft 501 kts 142°
2026-04-24 13:06 17.72476 73.32681 29828 ft 504 kts 143°
2026-04-24 13:06 17.69869 73.35152 30166 ft 507 kts 143°
2026-04-24 13:06 17.67285 73.37609 30492 ft 509 kts 143°
2026-04-24 13:06 17.64665 73.40102 30820 ft 511 kts 144°
2026-04-24 13:07 17.62021 73.42614 31155 ft 513 kts 144°
2026-04-24 13:07 17.59371 73.45127 31490 ft 514 kts 145°
2026-04-24 13:07 17.56720 73.47643 31834 ft 515 kts 145°
2026-04-24 13:07 17.54074 73.50159 32346 ft 511 kts 146°
2026-04-24 13:08 17.51447 73.52653 32881 ft 508 kts 146°
2026-04-24 13:08 17.48841 73.55120 33400 ft 504 kts 147°
2026-04-24 13:08 17.46247 73.57578 33916 ft 501 kts 147°
2026-04-24 13:09 17.41142 73.62414 34731 ft 497 kts 147°
2026-04-24 13:09 17.38575 73.64843 35087 ft 497 kts 146°
2026-04-24 13:09 17.36008 73.67270 35452 ft 497 kts 146°
2026-04-24 13:09 17.33441 73.69698 35789 ft 498 kts 146°
2026-04-24 13:10 17.30870 73.72127 36116 ft 498 kts 146°
2026-04-24 13:10 17.28300 73.74557 36458 ft 498 kts 146°
2026-04-24 13:10 17.25725 73.76989 36768 ft 499 kts 145°
2026-04-24 13:10 17.23136 73.79430 36836 ft 503 kts 145°
2026-04-24 13:11 17.18028 73.84257 36855 ft 497 kts 145°
2026-04-24 13:11 17.12875 73.89108 36841 ft 498 kts 145°
2026-04-24 13:12 17.07736 73.93953 36853 ft 497 kts 145°
2026-04-24 13:12 17.02592 73.98792 36850 ft 498 kts 145°
2026-04-24 13:13 16.97588 74.03501 36861 ft 498 kts 145°
2026-04-24 13:13 16.92552 74.08232 36859 ft 498 kts 145°
2026-04-24 13:14 16.87578 74.13282 36868 ft 505 kts 135°
2026-04-24 13:14 16.83208 74.19039 36869 ft 506 kts 135°
2026-04-24 13:15 16.78849 74.24813 36873 ft 506 kts 136°
2026-04-24 13:15 16.74481 74.30568 36872 ft 505 kts 135°
2026-04-24 13:16 16.70125 74.36319 36880 ft 505 kts 136°
2026-04-24 13:16 16.65796 74.42020 36872 ft 505 kts 136°
2026-04-24 13:17 16.61439 74.47759 36872 ft 504 kts 136°
2026-04-24 13:17 16.57079 74.53494 36857 ft 504 kts 136°
2026-04-24 13:18 16.52719 74.59226 36851 ft 504 kts 136°
2026-04-24 13:18 16.48393 74.64908 36842 ft 504 kts 136°
2026-04-24 13:19 16.44033 74.70628 36840 ft 504 kts 136°
2026-04-24 13:19 16.39674 74.76343 36844 ft 504 kts 136°
2026-04-24 13:20 16.35315 74.82053 36838 ft 503 kts 136°
2026-04-24 13:20 16.30991 74.87712 36843 ft 503 kts 136°
2026-04-24 13:21 16.26632 74.93413 36836 ft 503 kts 136°
2026-04-24 13:21 16.22274 74.99108 36838 ft 503 kts 136°
2026-04-24 13:22 16.17923 75.04791 36832 ft 503 kts 136°
2026-04-24 13:22 16.13555 75.10489 36837 ft 503 kts 136°
2026-04-24 13:23 16.09221 75.16140 36834 ft 503 kts 136°
2026-04-24 13:23 16.04857 75.21825 36840 ft 502 kts 136°
2026-04-24 13:24 16.00502 75.27495 36835 ft 502 kts 136°
2026-04-24 13:24 15.96138 75.33170 36843 ft 502 kts 136°
2026-04-24 13:25 15.91778 75.38838 36838 ft 502 kts 136°
2026-04-24 13:25 15.87444 75.44465 36843 ft 502 kts 136°
2026-04-24 13:26 15.83078 75.50131 36840 ft 502 kts 136°
2026-04-24 13:26 15.78708 75.55798 36845 ft 503 kts 136°
2026-04-24 13:27 15.74333 75.61467 36842 ft 504 kts 136°
2026-04-24 13:27 15.69980 75.67103 36840 ft 505 kts 136°
2026-04-24 13:28 15.65589 75.72784 36839 ft 505 kts 136°
2026-04-24 13:28 15.61188 75.78474 36839 ft 506 kts 136°
2026-04-24 13:29 15.56782 75.84165 36833 ft 506 kts 136°
2026-04-24 13:29 15.52405 75.89815 36829 ft 506 kts 136°
2026-04-24 13:30 15.47991 75.95508 36823 ft 506 kts 136°
2026-04-24 13:30 15.43584 76.01188 36814 ft 506 kts 136°
2026-04-24 13:31 15.39166 76.06877 36816 ft 506 kts 136°
2026-04-24 13:31 15.34751 76.12560 36807 ft 506 kts 136°
2026-04-24 13:32 15.30370 76.18194 36813 ft 505 kts 136°
2026-04-24 13:32 15.25964 76.23855 36813 ft 505 kts 136°
2026-04-24 13:33 15.21560 76.29510 36817 ft 505 kts 136°
2026-04-24 13:33 15.17145 76.35175 36815 ft 505 kts 136°
2026-04-24 13:34 15.12758 76.40798 36823 ft 505 kts 136°
2026-04-24 13:34 15.08345 76.46451 36819 ft 505 kts 136°
2026-04-24 13:35 15.03933 76.52098 36826 ft 505 kts 136°
2026-04-24 13:35 14.99518 76.57746 36851 ft 503 kts 136°
2026-04-24 13:36 14.95101 76.63389 36825 ft 505 kts 136°
2026-04-24 13:36 14.90708 76.69001 36826 ft 506 kts 136°
2026-04-24 13:37 14.86284 76.74647 36845 ft 505 kts 136°
2026-04-24 13:37 14.81862 76.80286 36825 ft 505 kts 136°
2026-04-24 13:38 14.77439 76.85922 36827 ft 505 kts 136°
2026-04-24 13:38 14.72835 76.91786 36823 ft 505 kts 136°
2026-04-24 13:39 14.68410 76.97417 36819 ft 505 kts 136°
2026-04-24 13:39 14.63987 77.03041 36820 ft 505 kts 136°
2026-04-24 13:40 14.60366 77.07774 36819 ft 509 kts 129°
2026-04-24 13:40 14.58169 77.12098 36826 ft 519 kts 117°
2026-04-24 13:40 14.56892 77.15576 36820 ft 518 kts 117°
2026-04-24 13:41 14.54368 77.22535 36831 ft 518 kts 117°
2026-04-24 13:41 14.51834 77.29498 36829 ft 518 kts 117°
2026-04-24 13:42 14.49303 77.36449 36829 ft 518 kts 117°
2026-04-24 13:42 14.46787 77.43354 36837 ft 517 kts 117°
2026-04-24 13:43 14.44251 77.50303 36838 ft 518 kts 117°
2026-04-24 13:43 14.41712 77.57257 36837 ft 518 kts 117°
2026-04-24 13:44 14.39601 77.63031 36836 ft 518 kts 117°
2026-04-24 13:44 14.36650 77.71097 36834 ft 517 kts 117°
2026-04-24 13:45 14.34105 77.78040 36845 ft 517 kts 117°
2026-04-24 13:45 14.31576 77.84939 36624 ft 515 kts 117°
2026-04-24 13:46 14.30300 77.88412 36268 ft 516 kts 117°
2026-04-24 13:46 14.29028 77.91875 35890 ft 517 kts 117°
2026-04-24 13:46 14.27753 77.95344 35515 ft 519 kts 117°
2026-04-24 13:46 14.26906 77.97651 35266 ft 519 kts 117°
2026-04-24 13:47 14.25209 78.02263 34779 ft 521 kts 117°
2026-04-24 13:47 14.24355 78.04582 34530 ft 522 kts 117°
2026-04-24 13:47 14.22629 78.09267 33976 ft 524 kts 118°
2026-04-24 13:47 14.21332 78.12786 33519 ft 526 kts 117°
2026-04-24 13:48 14.20469 78.15124 33173 ft 528 kts 117°
2026-04-24 13:48 14.18722 78.19861 32542 ft 530 kts 117°
2026-04-24 13:48 14.17855 78.22213 32214 ft 530 kts 117°
2026-04-24 13:48 14.16117 78.26920 31546 ft 532 kts 117°
2026-04-24 13:49 14.14796 78.30492 31044 ft 534 kts 117°
2026-04-24 13:49 14.13475 78.34067 30522 ft 535 kts 116°
2026-04-24 13:49 14.12152 78.37650 30156 ft 533 kts 116°
2026-04-24 13:49 14.11282 78.40008 29958 ft 531 kts 116°
2026-04-24 13:50 14.09532 78.44735 29494 ft 526 kts 116°
2026-04-24 13:50 14.08669 78.47063 29244 ft 524 kts 116°
2026-04-24 13:50 14.07373 78.50561 28910 ft 521 kts 116°
2026-04-24 13:50 14.05652 78.55208 28457 ft 517 kts 116°
2026-04-24 13:51 14.04805 78.57493 28252 ft 514 kts 116°
2026-04-24 13:51 14.03455 78.60881 27992 ft 507 kts 122°
2026-04-24 13:51 14.01713 78.64009 27679 ft 502 kts 126°
2026-04-24 13:51 13.99929 78.67079 27369 ft 499 kts 126°
2026-04-24 13:52 13.98161 78.70087 27066 ft 496 kts 126°
2026-04-24 13:52 13.96382 78.73119 26759 ft 494 kts 125°
2026-04-24 13:52 13.94619 78.76144 26471 ft 491 kts 125°
2026-04-24 13:52 13.92870 78.79145 26190 ft 488 kts 125°
2026-04-24 13:53 13.91119 78.82133 25919 ft 486 kts 125°
2026-04-24 13:53 13.89380 78.85102 25656 ft 483 kts 125°
2026-04-24 13:53 13.87652 78.88056 25379 ft 481 kts 124°
2026-04-24 13:53 13.85932 78.90996 25123 ft 478 kts 124°
2026-04-24 13:54 13.84219 78.93919 24873 ft 476 kts 124°
2026-04-24 13:54 13.82539 78.96785 24636 ft 473 kts 124°
2026-04-24 13:54 13.80844 78.99678 24395 ft 471 kts 124°
2026-04-24 13:54 13.79160 79.02551 24151 ft 468 kts 124°
2026-04-24 13:55 13.77483 79.05411 23923 ft 466 kts 124°
2026-04-24 13:55 13.75810 79.08261 23702 ft 464 kts 124°
2026-04-24 13:55 13.74149 79.11092 23480 ft 461 kts 124°
2026-04-24 13:55 13.72496 79.13908 23220 ft 459 kts 123°
2026-04-24 13:56 13.70851 79.16709 22970 ft 456 kts 123°
2026-04-24 13:56 13.69235 79.19459 22720 ft 454 kts 123°
2026-04-24 13:56 13.67606 79.22230 22474 ft 452 kts 123°
2026-04-24 13:56 13.65983 79.24992 22240 ft 450 kts 123°
2026-04-24 13:57 13.64368 79.27740 22003 ft 448 kts 123°
2026-04-24 13:57 13.62758 79.30476 21775 ft 446 kts 123°
2026-04-24 13:57 13.61157 79.33196 21551 ft 444 kts 123°
2026-04-24 13:57 13.59562 79.35906 21335 ft 442 kts 123°
2026-04-24 13:58 13.57973 79.38604 21108 ft 441 kts 123°
2026-04-24 13:58 13.56396 79.41286 20999 ft 437 kts 123°
2026-04-24 13:58 13.54829 79.43947 20965 ft 431 kts 123°
2026-04-24 13:58 13.53291 79.46547 20500 ft 431 kts 123°
2026-04-24 13:59 13.51757 79.49156 20280 ft 418 kts 123°
2026-04-24 13:59 13.50287 79.51664 20150 ft 401 kts 123°
2026-04-24 13:59 13.48871 79.54068 20018 ft 386 kts 123°
2026-04-24 13:59 13.47488 79.56403 19607 ft 384 kts 123°
2026-04-24 14:00 13.46103 79.58743 18953 ft 385 kts 123°
2026-04-24 14:00 13.44712 79.61101 18272 ft 386 kts 123°
2026-04-24 14:00 13.43318 79.63462 17547 ft 386 kts 122°
2026-04-24 14:00 13.41953 79.65775 16961 ft 382 kts 122°
2026-04-24 14:01 13.40600 79.68110 16361 ft 379 kts 121°
2026-04-24 14:01 13.39273 79.70431 15765 ft 375 kts 121°
2026-04-24 14:01 13.37950 79.72725 15199 ft 371 kts 121°
2026-04-24 14:01 13.36648 79.74969 14846 ft 352 kts 120°
2026-04-24 14:02 13.35438 79.77059 14294 ft 330 kts 120°
2026-04-24 14:02 13.34303 79.79026 13731 ft 313 kts 120°
2026-04-24 14:02 13.33207 79.80925 12899 ft 306 kts 120°
2026-04-24 14:02 13.32132 79.82782 12057 ft 300 kts 119°
2026-04-24 14:03 13.31076 79.84603 11224 ft 294 kts 119°
2026-04-24 14:03 13.30062 79.86354 10539 ft 283 kts 119°
2026-04-24 14:03 13.29099 79.88020 10094 ft 264 kts 119°
2026-04-24 14:03 13.28186 79.89596 9744 ft 245 kts 118°
2026-04-24 14:04 13.27335 79.91067 9222 ft 236 kts 118°
2026-04-24 14:04 13.26505 79.92506 8607 ft 233 kts 119°
2026-04-24 14:04 13.25678 79.93933 7996 ft 232 kts 119°
2026-04-24 14:04 13.24854 79.95353 7397 ft 231 kts 120°
2026-04-24 14:05 13.24040 79.96757 7065 ft 228 kts 120°
2026-04-24 14:05 13.23225 79.98159 7017 ft 229 kts 120°
2026-04-24 14:05 13.22409 79.99566 7022 ft 230 kts 120°
2026-04-24 14:05 13.21591 80.00975 7024 ft 230 kts 120°
2026-04-24 14:06 13.20773 80.02385 7017 ft 230 kts 120°
2026-04-24 14:06 13.19951 80.03799 7018 ft 231 kts 120°
2026-04-24 14:06 13.19125 80.05213 7020 ft 232 kts 121°
2026-04-24 14:06 13.17960 80.06348 7025 ft 236 kts 149°
2026-04-24 14:07 13.16363 80.06767 7035 ft 242 kts 179°
2026-04-24 14:07 13.14676 80.06599 7024 ft 244 kts 186°
2026-04-24 14:07 13.12992 80.06359 7019 ft 245 kts 187°
2026-04-24 14:07 13.11307 80.06128 7016 ft 244 kts 186°
2026-04-24 14:08 13.09646 80.05922 7017 ft 244 kts 186°
2026-04-24 14:08 13.07957 80.05712 7018 ft 244 kts 186°
2026-04-24 14:08 13.06311 80.05285 7017 ft 248 kts 208°
2026-04-24 14:08 13.05069 80.04074 7023 ft 251 kts 239°
2026-04-24 14:09 13.04369 80.02429 7019 ft 252 kts 250°
2026-04-24 14:09 13.03741 80.00737 6756 ft 256 kts 250°
2026-04-24 14:09 13.03104 79.99030 6275 ft 258 kts 250°
2026-04-24 14:09 13.02443 79.97301 5697 ft 262 kts 249°
2026-04-24 14:10 13.01784 79.95584 5136 ft 264 kts 249°
2026-04-24 14:10 13.01090 79.93834 4585 ft 264 kts 244°
2026-04-24 14:10 12.99901 79.92442 3924 ft 262 kts 213°
2026-04-24 14:10 12.98228 79.91794 3299 ft 257 kts 187°
2026-04-24 14:11 12.96479 79.92001 2688 ft 254 kts 161°
2026-04-24 14:11 12.95034 79.92965 2356 ft 242 kts 141°
2026-04-24 14:11 12.92728 79.95158 2301 ft 216 kts 139°
2026-04-24 14:12 12.91958 79.96465 2266 ft 218 kts 109°
2026-04-24 14:12 12.92002 79.97997 2270 ft 227 kts 78°
2026-04-24 14:12 12.92528 79.99521 2306 ft 221 kts 73°
2026-04-24 14:12 12.93084 80.01027 2303 ft 224 kts 73°
2026-04-24 14:13 12.93639 80.02514 2305 ft 227 kts 73°
2026-04-24 14:13 12.94195 80.04005 2231 ft 227 kts 73°
2026-04-24 14:13 12.94762 80.05519 1955 ft 225 kts 73°
2026-04-24 14:13 12.95314 80.06991 1683 ft 219 kts 73°
2026-04-24 14:14 12.95869 80.08486 1382 ft 221 kts 73°
2026-04-24 14:14 12.96296 80.09629 1175 ft 219 kts 73°
2026-04-24 14:14 12.97378 80.12533 642 ft 216 kts 73°
2026-04-24 14:15 12.97914 80.13913 404 ft 199 kts 70°
2026-04-24 14:15 12.98403 80.15183 156 ft 184 kts 72°
2026-04-24 14:15 12.98815 80.16339 56 ft 145 kts 71°
2026-04-24 14:15 12.99055 80.16995 60 ft 53 kts 69°
2026-04-24 14:16 12.99134 80.17216 56 ft 31 kts 69°
2026-04-24 14:16 12.99207 80.17413 57 ft 29 kts 69°
2026-04-24 14:16 12.99274 80.17595 60 ft 22 kts 71°
2026-04-24 14:17 12.99242 80.17673 61 ft 0 kts 163°
2026-04-24 14:17 12.99231 80.17676 59 ft 3 kts 162°
2026-04-24 14:17 12.99158 80.17691 62 ft 6 kts 181°
2026-04-24 14:18 12.99128 80.17674 61 ft 4 kts 223°
2026-04-24 14:18 12.99113 80.17647 61 ft 5 kts 244°
2026-04-24 14:18 12.99098 80.17611 58 ft 6 kts 247°
2026-04-24 14:18 12.99081 80.17564 64 ft 8 kts 251°
2026-04-24 14:19 12.99061 80.17505 58 ft 10 kts 250°
2026-04-24 14:19 12.99035 80.17435 60 ft 11 kts 249°
2026-04-24 14:19 12.99004 80.17352 55 ft 13 kts 249°
2026-04-24 14:19 12.98963 80.17261 56 ft 14 kts 240°
2026-04-24 14:20 12.98918 80.17167 56 ft 15 kts 248°
2026-04-24 14:20 12.98884 80.17076 55 ft 16 kts 248°
2026-04-24 14:20 12.98843 80.16965 56 ft 17 kts 249°
2026-04-24 14:20 12.98798 80.16847 56 ft 18 kts 249°
2026-04-24 14:21 12.98743 80.16743 59 ft 15 kts 215°
2026-04-24 14:21 12.98663 80.16752 58 ft 11 kts 156°
2026-04-24 14:21 12.98603 80.16753 58 ft 5 kts 209°
2026-04-24 14:21 12.98583 80.16726 58 ft 5 kts 238°
2026-04-24 14:22 12.98572 80.16703 55 ft 6 kts 244°
2026-04-24 14:22 12.98554 80.16660 56 ft 7 kts 249°
2026-04-24 14:22 12.98523 80.16622 57 ft 3 kts 217°
2026-04-24 14:23 12.98514 80.16620 55 ft 0 kts 191°
2026-04-24 14:23 12.98511 80.16621 62 ft 1 kts 180°
2026-04-24 14:23 12.98507 80.16623 62 ft 0 kts 164°
2026-04-24 14:23 12.98498 80.16627 55 ft 3 kts 161°
2026-04-24 14:24 12.98487 80.16631 58 ft 1 kts 161°
2026-04-24 14:24 12.98476 80.16635 55 ft 0 kts 162°
2026-04-24 14:24 12.98472 80.16636 53 ft 2 kts 162°
2026-04-24 14:24 12.98481 80.16633 57 ft 1 kts 162°
2026-04-24 14:25 12.98479 80.16634 56 ft 0 kts 161°